Home   Weather   Woodbridge   Past weeks
Flag for South Africa

Past Weather in Woodbridge, South Africa — Yesterday and Last 2 Weeks

Now
84 °F

Passing clouds.


Feels Like: 84 °F
Forecast: 97 / 63 °F
Wind: 16 mph from North

Location: Bloemfontein Airport

Current Time: Jan 17, 2019 at 11:07:43 am

Latest Report: Jan 17, 2019 at 10:00 am


Visibility: N/A

Pressure: 30.04 "Hg

Humidity: 45%

Dew Point: 61 °F

Location of WoodbridgeLocation

Past Weather in Woodbridge — Graph

°F

Woodbridge Temperature Yesterday

Maximum temperature yesterday: 97 °F (at 4:00 pm)
Minimum temperature yesterday: 66 °F (at 5:00 am)
Average temperature yesterday: 82 °F

High & Low Weather Summary for the Past Weeks

 TemperatureHumidityPressure
High97 °F (Jan 14, 1:00 pm)94% (Jan 4, 5:00 am)30.18 "Hg (Jan 4, 5:00 am)
Low54 °F (Jan 11, 4:00 am)5% (Jan 11, 5:00 pm)29.80 "Hg (Jan 9, 4:00 pm)
Average76 °F45%29.99 "Hg
* Reported Jan 2 10:00 am — Jan 17 10:00 am, Woodbridge. Weather by CustomWeather, © 2019

Note: Actual official high and low records may vary slightly from our data, if they occured in-between our weather recording intervals... More about our weather records

Advertising

Woodbridge Weather History for the Previous 24 Hours

Scroll right to see more
 ConditionsComfort  
Time TempWeatherWind HumidityBarometerVisibility
10:00 am
Thu, Jan 17
84 °FPassing clouds.16 mph45%30.04 "HgN/A
9:00 am79 °FSunny.17 mph54%30.07 "Hg10 mi
8:00 am75 °FSunny.17 mph61%30.07 "Hg10 mi
7:00 am70 °FSunny.12 mph69%30.07 "Hg10 mi
6:00 am66 °FSunny.9 mph78%30.04 "Hg10 mi
5:00 am66 °FClear.14 mph78%30.04 "Hg10 mi
4:00 am68 °FMild.14 mph73%30.04 "HgN/A
3:00 am68 °FMild.13 mph64%30.04 "HgN/A
2:00 am72 °FMild.13 mph65%30.04 "HgN/A
1:00 am72 °FMild.9 mph65%30.04 "HgN/A
12:00 am75 °FMild.14 mph57%30.01 "HgN/A
11:00 pm
Wed, Jan 16
77 °FWarm.14 mph47%30.01 "HgN/A
10:47 pm79 °FPleasantly warm.12 mph30%29.98 "HgN/A
10:00 pm81 °FPleasantly warm.6 mph15%29.98 "HgN/A
9:00 pm84 °FPleasantly warm.5 mph12%29.95 "HgN/A
8:00 pm86 °FClear.5 mph9%29.95 "Hg10 mi
7:00 pm93 °FSunny.9 mph8%29.92 "Hg10 mi
6:00 pm95 °FSunny.14 mph7%29.92 "Hg10 mi
5:00 pm97 °FSunny.9 mph6%29.95 "Hg10 mi
4:00 pm97 °FScattered clouds.5 mph13%29.92 "HgN/A
3:00 pm93 °FScattered clouds.12 mph15%29.95 "HgN/A
2:00 pm95 °FScattered clouds.8 mph13%30.01 "HgN/A
1:00 pm93 °FPassing clouds.16 mph23%30.01 "HgN/A
12:00 pm91 °FPassing clouds.14 mph26%30.04 "HgN/A
11:00 am88 °FSunny.12 mph29%30.04 "Hg10 mi
Weather by CustomWeather, © 2019

See weather overview